Flag for Germany Weather past 2 weeks in Neumarkt in der Oberpfalz, Bavaria, Germany

Now
32 °F

Passing clouds.


Feels Like: 29 °F
Forecast: 42 / 65 °F
Wind: 3 mph from North

Location: Hohenfels


UV Index: 3 (Moderate)

Visibility: N/A


Pressure: 29.98 "Hg

Humidity: 100%

Dew point: 32 °F

Location of Neumarkt in der OberpfalzLocation

Historic Weather in Neumarkt in der Oberpfalz

°F

Neumarkt in der Oberpfalz temperature yesterday

Maximum temperature yesterday: 46 °F (at 6:04 PM)
Minimum temperature yesterday: 30 °F (at 3:58 AM)
Average temperature yesterday: 38 °F

Past Weeks' High & Low Weather Summary

 TemperatureHumidityPressure
High72 °F (Apr 4, 1:58 PM)100% (Apr 4, 7:58 PM)30.44 "Hg (Apr 4, 7:58 PM)
Low25 °F (Apr 17, 5:58 AM)30% (Apr 17, 3:58 PM)29.69 "Hg (Apr 4, 3:58 PM)
Average48 °F73%30.08 "Hg
* Reported Apr 4 2:58 AM — Apr 19 2:58 AM, Neumarkt in der Oberpfalz, Weather by CustomWeather, © 2014

Note: Actual official high and low records may vary slightly from our data, if they occured in-between our weather recording intervals... More about our weather records

Advertising

Historic Weather Conditions — Data for Previous 24 hours

 ConditionsComfort  
Time TempWeatherWind HumidityBarometerVisibility
2:58 AM
Apr 19
32 °FPassing clouds.3 mph100%29.98 "HgN/A
1:58 AM32 °FPassing clouds.1 mph100%29.98 "HgN/A
12:58 AM32 °FPassing clouds.1 mph100%29.99 "HgN/A
11:58 PM
Apr 18
36 °FPassing clouds.2 mph93%29.97 "HgN/A
10:58 PM36 °FPassing clouds.5 mph87%29.96 "HgN/A
9:58 PM36 °FClear.2 mph93%29.97 "HgN/A
8:58 PM39 °FMostly cloudy.2 mph87%29.95 "HgN/A
7:58 PM41 °FMore clouds than sun.3 mph81%29.93 "HgN/A
6:58 PM45 °FPassing clouds.2 mph71%29.91 "HgN/A
6:04 PM46 °FCloudy.3 mph66%29.85 "HgN/A
5:58 PM45 °FCloudy.No wind76%29.91 "HgN/A
4:58 PM43 °FLight rain. Mostly cloudy.6 mph76%29.92 "HgN/A
4:00 PM43 °FMostly cloudy.2 mph81%29.86 "HgN/A
3:58 PM41 °FMostly cloudy.2 mph87%29.90 "HgN/A
2:58 PM41 °FMostly cloudy.3 mph87%29.90 "HgN/A
2:04 PM41 °FLight rain. Broken clouds.1 mph87%29.85 "HgN/A
1:58 PM41 °FLight rain. Scattered clouds.5 mph87%29.90 "HgN/A
12:58 PM41 °FRain. Mostly cloudy.7 mph87%29.90 "HgN/A
11:58 AM43 °FLight rain. Mostly cloudy.7 mph93%29.87 "HgN/A
10:58 AM43 °FLight rain. Overcast.2 mph93%29.86 "HgN/A
9:58 AM39 °FLight rain. Overcast.3 mph93%29.87 "HgN/A
8:58 AM39 °FLight rain. Scattered clouds.1 mph87%29.88 "HgN/A
7:58 AM37 °FScattered clouds.1 mph81%29.89 "HgN/A
6:58 AM34 °FPassing clouds.5 mph81%29.88 "HgN/A
5:58 AM32 °FPassing clouds.3 mph80%29.88 "HgN/A
4:58 AM32 °FPassing clouds.No wind80%29.91 "HgN/A
3:58 AM30 °FPassing clouds.No wind86%29.93 "HgN/A
Weather by CustomWeather, © 2014

See weather overview